Total_Precipitation_Accumulation
0.01 0.07 0.16 0.16 0.15 0.37 0.45 0.29 0.07 0.01 0.00 0.00 0.00 0.00 0.00 0.00 0.02 0.07 0.01 0.00 0.00 0.00 0.00 0.01 0.01 0.01 0.03 0.05 0.06 0.06 0.05 0.02 0.01 0.02 0.04 0.07 0.03 0.01 0.01 0.01 0.01 0.01 0.01 0.01 0.02 0.02 0.01 0.01 0.01
0.01 0.06 0.14 0.12 0.20 0.42 0.40 0.31 0.09 0.03 0.01 0.00 0.00 0.00 0.00 0.00 0.00 0.00 0.00 0.00 0.00 0.00 0.00 0.00 0.01 0.01 0.02 0.03 0.05 0.07 0.07 0.03 0.03 0.05 0.07 0.08 0.05 0.02 0.01 0.01 0.01 0.01 0.00 0.01 0.01 0.02 0.01 0.00 0.00
0.01 0.04 0.11 0.10 0.25 0.29 0.23 0.18 0.04 0.02 0.01 0.00 0.00 0.00 0.00 0.00 0.00 0.00 0.00 0.00 0.00 0.00 0.00 0.01 0.01 0.01 0.02 0.02 0.03 0.07 0.10 0.07 0.06 0.08 0.10 0.08 0.07 0.04 0.03 0.02 0.03 0.02 0.01 0.01 0.01 0.01 0.01 0.00 0.00
0.00 0.01 0.05 0.06 0.18 0.19 0.12 0.08 0.05 0.03 0.01 0.00 0.00 0.00 0.00 0.00 0.00 0.00 0.00 0.00 0.00 0.00 0.00 0.00 0.02 0.02 0.03 0.02 0.02 0.05 0.10 0.09 0.07 0.09 0.12 0.10 0.11 0.13 0.08 0.04 0.05 0.05 0.03 0.01 0.01 0.01 0.01 0.01 0.01
0.00 0.00 0.01 0.03 0.11 0.16 0.14 0.10 0.06 0.03 0.01 0.01 0.00 0.00 0.00 0.00 0.00 0.00 0.00 0.00 0.00 0.00 0.00 0.00 0.02 0.02 0.02 0.02 0.03 0.04 0.05 0.06 0.05 0.06 0.05 0.05 0.08 0.15 0.12 0.08 0.06 0.05 0.04 0.02 0.01 0.01 0.01 0.01 0.01
0.00 0.00 0.00 0.03 0.06 0.10 0.12 0.09 0.07 0.05 0.02 0.01 0.01 0.01 0.00 0.00 0.00 0.00 0.00 0.00 0.00 0.00 0.00 0.00 0.01 0.02 0.01 0.01 0.02 0.04 0.04 0.03 0.02 0.01 0.01 0.02 0.03 0.04 0.07 0.08 0.07 0.05 0.02 0.02 0.02 0.02 0.02 0.02 0.03
0.00 0.00 0.00 0.01 0.02 0.04 0.07 0.05 0.05 0.03 0.02 0.02 0.01 0.01 0.01 0.00 0.00 0.00 0.00 0.00 0.00 0.00 0.00 0.00 0.01 0.01 0.01 0.01 0.01 0.02 0.03 0.02 0.02 0.01 0.01 0.01 0.02 0.03 0.05 0.06 0.06 0.06 0.05 0.04 0.03 0.03 0.03 0.03 0.03
0.00 0.00 0.00 0.00 0.01 0.02 0.02 0.03 0.03 0.02 0.02 0.02 0.01 0.02 0.04 0.01 0.00 0.00 0.00 0.00 0.00 0.00 0.00 0.00 0.01 0.02 0.02 0.02 0.02 0.03 0.03 0.02 0.02 0.01 0.01 0.01 0.02 0.02 0.04 0.05 0.05 0.08 0.09 0.07 0.05 0.04 0.04 0.05 0.04
0.00 0.00 0.00 0.00 0.00 0.01 0.01 0.02 0.03 0.03 0.03 0.03 0.02 0.04 0.04 0.01 0.00 0.00 0.00 0.00 0.00 0.01 0.01 0.01 0.02 0.02 0.03 0.02 0.02 0.03 0.03 0.03 0.03 0.04 0.04 0.04 0.03 0.06 0.12 0.11 0.16 0.15 0.17 0.19 0.17 0.15 0.15 0.13 0.08
0.00 0.00 0.00 0.00 0.00 0.00 0.00 0.01 0.02 0.02 0.05 0.08 0.08 0.07 0.06 0.02 0.00 0.00 0.00 0.00 0.00 0.01 0.01 0.02 0.02 0.02 0.02 0.02 0.03 0.03 0.03 0.05 0.05 0.07 0.14 0.18 0.22 0.18 0.09 0.17 0.30 0.41 0.54 0.50 0.46 0.48 0.38 0.30 0.24
0.00 0.00 0.00 0.00 0.00 0.00 0.00 0.00 0.01 0.02 0.07 0.17 0.28 0.23 0.13 0.05 0.00 0.00 0.00 0.00 0.01 0.01 0.01 0.01 0.02 0.03 0.03 0.03 0.03 0.04 0.05 0.09 0.10 0.11 0.19 0.25 0.24 0.16 0.09 0.16 0.34 0.50 0.64 0.60 0.78 0.88 0.69 0.69 0.69
0.00 0.00 0.00 0.00 0.00 0.00 0.00 0.00 0.01 0.03 0.09 0.24 0.37 0.29 0.14 0.04 0.01 0.01 0.00 0.00 0.01 0.03 0.04 0.03 0.03 0.04 0.05 0.06 0.06 0.07 0.07 0.09 0.10 0.15 0.18 0.26 0.31 0.26 0.26 0.34 0.42 0.54 0.64 0.83 0.82 0.97 0.94 0.88 0.86
0.00 0.00 0.00 0.00 0.00 0.00 0.00 0.00 0.01 0.02 0.06 0.22 0.32 0.23 0.07 0.05 0.03 0.03 0.02 0.03 0.05 0.08 0.11 0.11 0.10 0.11 0.12 0.12 0.13 0.11 0.12 0.15 0.16 0.22 0.31 0.40 0.48 0.52 0.59 0.57 0.60 0.57 0.70 0.89 0.96 0.94 1.11 1.20 1.12
0.00 0.00 0.00 0.00 0.00 0.00 0.00 0.00 0.00 0.02 0.04 0.16 0.25 0.24 0.11 0.07 0.08 0.11 0.16 0.18 0.15 0.20 0.26 0.31 0.33 0.36 0.39 0.39 0.38 0.37 0.37 0.42 0.45 0.49 0.55 0.64 0.73 0.89 0.99 0.95 0.93 0.84 0.89 1.02 1.12 1.12 1.49 1.42 1.37
0.00 0.00 0.00 0.00 0.00 0.00 0.00 0.00 0.01 0.03 0.02 0.09 0.19 0.21 0.17 0.12 0.13 0.15 0.20 0.31 0.41 0.46 0.49 0.59 0.67 0.74 0.80 0.78 0.78 0.80 0.85 0.85 0.85 0.87 0.93 1.00 1.03 1.22 1.31 1.32 1.23 1.24 1.22 1.33 1.33 1.45 1.64 1.38 1.32
0.00 0.00 0.00 0.00 0.00 0.00 0.00 0.01 0.01 0.01 0.02 0.05 0.15 0.31 0.35 0.34 0.34 0.34 0.41 0.60 0.73 0.77 0.84 1.03 1.15 1.22 1.26 1.26 1.26 1.30 1.24 1.17 1.10 1.16 1.29 1.32 1.38 1.55 1.64 1.51 1.42 1.66 1.70 1.68 1.73 1.77 1.76 1.63 1.53
0.00 0.00 0.00 0.00 0.01 0.01 0.00 0.01 0.02 0.02 0.07 0.09 0.16 0.33 0.52 0.68 0.82 0.91 0.93 1.02 1.16 1.35 1.51 1.67 1.73 1.72 1.69 1.71 1.74 1.79 1.74 1.57 1.44 1.46 1.51 1.57 1.54 1.62 1.75 1.59 1.64 1.84 1.87 1.86 1.72 1.95 1.89 1.83 1.72
0.01 0.01 0.01 0.02 0.01 0.02 0.01 0.01 0.02 0.02 0.06 0.15 0.28 0.50 0.74 1.04 1.39 1.51 1.56 1.58 1.61 1.71 1.94 2.05 2.07 2.24 2.34 2.34 2.24 2.20 2.02 1.80 1.74 1.77 1.82 1.79 1.72 1.74 1.86 1.73 1.79 1.93 1.97 1.90 1.91 1.97 1.98 1.85 1.75
0.02 0.02 0.03 0.03 0.01 0.01 0.02 0.02 0.02 0.06 0.12 0.15 0.27 0.54 0.82 0.97 1.27 1.52 1.57 1.68 1.75 2.01 2.24 2.44 2.88 3.03 2.95 2.76 2.46 2.28 2.16 2.10 2.01 1.89 1.77 1.75 1.76 1.84 1.99 1.86 1.95 1.95 1.81 1.80 1.96 2.05 1.85 1.64 1.76
0.01 0.01 0.01 0.03 0.02 0.01 0.01 0.02 0.04 0.08 0.12 0.13 0.22 0.40 0.65 0.97 1.22 1.41 1.46 1.44 1.69 2.15 2.44 2.47 2.42 2.55 2.62 2.54 2.44 2.40 2.43 2.19 1.98 1.87 1.72 1.62 1.67 1.77 1.79 1.79 1.75 1.75 1.75 1.74 1.78 1.95 1.75 1.42 1.59
0.01 0.01 0.01 0.04 0.04 0.02 0.02 0.11 0.15 0.19 0.19 0.28 0.40 0.56 0.71 1.02 1.26 1.36 1.38 1.35 1.42 1.57 1.76 1.87 1.90 1.82 1.80 1.87 2.02 2.09 2.14 1.96 1.79 1.71 1.66 1.56 1.54 1.50 1.51 1.52 1.64 1.83 1.87 1.73 1.69 1.72 1.64 1.36 1.35
0.03 0.02 0.01 0.01 0.01 0.03 0.06 0.20 0.34 0.30 0.38 0.49 0.56 0.71 0.92 1.16 1.12 1.16 1.23 1.18 1.22 1.32 1.41 1.43 1.46 1.45 1.48 1.59 1.69 1.70 1.69 1.60 1.58 1.59 1.50 1.45 1.40 1.36 1.34 1.37 1.41 1.45 1.52 1.50 1.38 1.45 1.53 1.48 1.28
0.02 0.01 0.00 0.00 0.01 0.03 0.10 0.21 0.38 0.53 0.59 0.58 0.66 0.67 0.86 0.95 0.87 0.84 0.90 0.91 0.94 0.97 1.08 1.17 1.25 1.25 1.27 1.29 1.34 1.38 1.37 1.38 1.40 1.34 1.28 1.22 1.19 1.25 1.25 1.20 1.18 1.14 1.18 1.28 1.29 1.33 1.34 1.36 1.30
0.01 0.01 0.02 0.04 0.06 0.15 0.24 0.28 0.45 0.66 0.71 0.58 0.62 0.67 0.78 0.80 0.78 0.84 0.82 0.78 0.81 0.88 0.98 1.05 1.10 1.12 1.13 1.14 1.16 1.17 1.18 1.19 1.18 1.15 1.15 1.12 1.08 1.02 1.01 1.04 1.05 1.03 1.08 1.16 1.23 1.26 1.19 1.22 1.25
0.02 0.03 0.17 0.33 0.43 0.48 0.34 0.30 0.49 0.60 0.58 0.56 0.61 0.73 0.80 0.74 0.69 0.68 0.68 0.70 0.75 0.77 0.77 0.79 0.82 0.87 0.84 0.83 0.88 0.89 0.90 0.89 0.91 0.91 0.88 0.82 0.74 0.73 0.76 0.76 0.84 0.89 0.98 1.01 1.01 1.08 1.15 1.25 1.27
0.04 0.07 0.27 0.34 0.24 0.27 0.28 0.41 0.67 0.70 0.64 0.59 0.65 0.73 0.67 0.58 0.54 0.53 0.53 0.53 0.56 0.54 0.52 0.55 0.60 0.67 0.71 0.70 0.70 0.62 0.58 0.57 0.56 0.65 0.65 0.61 0.57 0.55 0.60 0.69 0.81 0.90 0.94 0.94 0.97 0.97 1.02 1.15 1.24
0.09 0.12 0.15 0.28 0.21 0.21 0.27 0.50 0.70 0.70 0.69 0.74 0.83 0.83 0.72 0.57 0.45 0.41 0.40 0.38 0.36 0.36 0.39 0.46 0.52 0.56 0.61 0.60 0.56 0.51 0.46 0.43 0.43 0.47 0.53 0.53 0.58 0.53 0.57 0.65 0.76 0.88 0.99 1.02 1.00 1.01 1.09 1.23 1.30
0.08 0.09 0.11 0.24 0.28 0.28 0.24 0.54 0.78 0.93 0.93 0.85 0.89 0.77 0.57 0.43 0.33 0.29 0.25 0.24 0.24 0.25 0.30 0.38 0.42 0.42 0.43 0.44 0.43 0.38 0.36 0.37 0.39 0.40 0.42 0.44 0.46 0.49 0.54 0.62 0.68 0.71 0.77 0.82 0.83 0.91 1.03 1.17 1.23
0.09 0.13 0.20 0.29 0.29 0.36 0.37 0.49 0.55 0.66 0.77 0.84 0.78 0.60 0.40 0.28 0.21 0.19 0.19 0.20 0.21 0.21 0.25 0.32 0.39 0.42 0.43 0.42 0.41 0.35 0.30 0.29 0.30 0.31 0.33 0.38 0.41 0.43 0.48 0.53 0.54 0.54 0.55 0.57 0.62 0.73 0.87 0.94 0.95
0.08 0.11 0.20 0.32 0.29 0.31 0.37 0.42 0.28 0.30 0.40 0.44 0.42 0.34 0.27 0.21 0.19 0.21 0.23 0.23 0.21 0.23 0.27 0.34 0.39 0.44 0.48 0.49 0.50 0.46 0.40 0.36 0.34 0.32 0.30 0.31 0.34 0.38 0.41 0.43 0.44 0.43 0.45 0.52 0.57 0.65 0.73 0.80 0.79